Lakeville, MN

12:32 PM CDT on September 30, 2016 (GMT -0500)
Airlake

Weather History for KLVN - April, 2013

Change the Weather History Date:

Tuesday, April 23, 2013

  Actual Average Record
Temperature  
Mean Temperature 32 °F -  
Max Temperature 37 °F 62 °F 87 °F (1990)
Min Temperature 26 °F 38 °F 21 °F (2008)
Degree Days  
Heating Degree Days 34    
Moisture  
Dew Point 24 °F    
Average Humidity 76    
Maximum Humidity 100    
Minimum Humidity 52    
Precipitation  
Precipitation 0.00 in - - ()
Sea Level Pressure  
Sea Level Pressure 30.10 in    
Wind  
Wind Speed 12 mph (NW)    
Max Wind Speed 15 mph    
Max Gust Speed 21 mph    
Visibility 9 miles    
Events Snow    
Averages and records for this station are not official NWS values.
T = Trace of Precipitation, MM = Missing Value Source: NWS Daily Summary

Daily Weather History Graph

Daily Weather History Graph

Search for Another Location

Airport or City:

Trip Planner

Search our weather history database for the weather conditions in past years. The results will help you decide how hot, cold, wet, or windy it might be!

Date:

Astronomy

Apr. 23, 2013 Rise Set
Actual Time 6:14 AM CDT 8:08 PM CDT
Civil Twilight 5:43 AM CDT 8:39 PM CDT
Nautical Twilight 5:05 AM CDT 9:17 PM CDT
Astronomical Twilight 4:24 AM CDT 9:59 PM CDT
Moon 5:59 PM CDT (4/23) 4:48 AM CDT (4/23)
Length of Visible Light 14h 55m
Length of Day
13h 53m
Waxing Gibbous, 94% of the Moon is Illuminated
Apr 23
Waxing Gibbous
Apr 25
Full
May 2
Last Quarter
May 9
New
May 17
First Quarter

Hourly Weather History & Observations

Time (CDT) Temp. Windchill Dew Point Humidity Pressure Visibility Wind Dir Wind Speed Gust Speed Precip Events Conditions
12:02 AM 30.2 °F 20.2 °F 30.2 °F 100% 30.10 in 3.0 mi NNW 12.7 mph - N/A Snow Light Snow
12:22 AM 30.2 °F 20.8 °F 30.2 °F 100% 30.10 in 3.0 mi NNW 11.5 mph - N/A Snow Light Snow
12:42 AM 30.2 °F 20.2 °F 28.4 °F 93% 30.10 in 3.0 mi NNW 12.7 mph - N/A Snow Light Snow
1:02 AM 30.2 °F 19.8 °F 28.4 °F 93% 30.09 in 4.0 mi NNW 13.8 mph 17.3 mph N/A Snow Light Snow
1:22 AM 30.2 °F 19.8 °F 28.4 °F 93% 30.11 in 7.0 mi NNW 13.8 mph 17.3 mph N/A Snow Light Snow
1:43 AM 30.2 °F 19.8 °F 28.4 °F 93% 30.13 in 7.0 mi NNW 13.8 mph 19.6 mph N/A Snow Light Snow
2:02 AM 30.2 °F 19.3 °F 28.4 °F 93% 30.11 in 5.0 mi NNW 15.0 mph 20.7 mph N/A Snow Light Snow
2:22 AM 30.2 °F 19.3 °F 28.4 °F 93% 30.10 in 4.0 mi NNW 15.0 mph - N/A Snow Light Snow
2:43 AM 30.2 °F 20.2 °F 28.4 °F 93% 30.11 in 2.5 mi NNW 12.7 mph - N/A Snow Light Snow
3:02 AM 30.2 °F 19.8 °F 28.4 °F 93% 30.11 in 2.5 mi NNW 13.8 mph - N/A Snow Light Snow
3:22 AM 30.2 °F 20.2 °F 28.4 °F 93% 30.11 in 4.0 mi NNW 12.7 mph - N/A Snow Light Snow
3:42 AM 28.4 °F 17.5 °F 28.4 °F 100% 30.09 in 7.0 mi NNW 13.8 mph - N/A Snow Light Snow
4:02 AM 28.4 °F 17.5 °F 26.6 °F 93% 30.10 in 10.0 mi NNW 13.8 mph - N/A   Overcast
4:22 AM 28.4 °F 18.5 °F 26.6 °F 93% 30.09 in 10.0 mi NNW 11.5 mph 15.0 mph N/A   Overcast
4:42 AM 28.4 °F 19.1 °F 26.6 °F 93% 30.09 in 10.0 mi NNW 10.4 mph 16.1 mph N/A   Overcast
5:02 AM 28.4 °F 19.1 °F 26.6 °F 93% 30.12 in 10.0 mi NNW 10.4 mph 18.4 mph N/A   Overcast
5:22 AM 28.4 °F 17.5 °F 26.6 °F 93% 30.12 in 10.0 mi NW 13.8 mph 19.6 mph N/A   Overcast
6:02 AM 28.4 °F 19.1 °F 26.6 °F 93% 30.12 in 10.0 mi NW 10.4 mph - N/A   Overcast
6:22 AM 28.4 °F 19.1 °F 26.6 °F 93% 30.13 in 10.0 mi NW 10.4 mph - N/A   Overcast
6:42 AM 28.4 °F 18.5 °F 26.6 °F 93% 30.13 in 10.0 mi NW 11.5 mph - N/A   Overcast
7:02 AM 28.4 °F 18.0 °F 26.6 °F 93% 30.14 in 10.0 mi NW 12.7 mph - N/A   Overcast
7:22 AM 28.4 °F 18.5 °F 24.8 °F 86% 30.14 in 10.0 mi NW 11.5 mph - N/A   Overcast
7:42 AM 26.6 °F 16.2 °F 24.8 °F 93% 30.13 in 10.0 mi NW 11.5 mph - N/A   Mostly Cloudy
8:02 AM 28.4 °F 19.1 °F 24.8 °F 86% 30.13 in 10.0 mi NW 10.4 mph - N/A   Clear
8:22 AM 28.4 °F 18.5 °F 24.8 °F 86% 30.13 in 10.0 mi NW 11.5 mph - N/A   Clear
8:42 AM 28.4 °F 19.1 °F 24.8 °F 86% 30.13 in 10.0 mi NW 10.4 mph - N/A   Clear
9:02 AM 28.4 °F 19.7 °F 24.8 °F 86% 30.14 in 10.0 mi NNW 9.2 mph - N/A   Clear
9:22 AM 28.4 °F 19.7 °F 24.8 °F 86% 30.14 in 10.0 mi NW 9.2 mph - N/A   Clear
9:42 AM 30.2 °F 22.6 °F 24.8 °F 80% 30.14 in 10.0 mi NW 8.1 mph - N/A   Clear
10:02 AM 30.2 °F 21.9 °F 24.8 °F 80% 30.14 in 10.0 mi NW 9.2 mph - N/A   Clear
10:22 AM 30.2 °F 21.3 °F 24.8 °F 80% 30.12 in 10.0 mi NW 10.4 mph - N/A   Clear
10:42 AM 32.0 °F 23.6 °F 26.6 °F 80% 30.12 in 10.0 mi WNW 10.4 mph - N/A   Clear
11:02 AM 32.0 °F 24.2 °F 26.6 °F 80% 30.12 in 10.0 mi NW 9.2 mph - N/A   Clear
11:22 AM 33.8 °F 26.4 °F 26.6 °F 75% 30.12 in 10.0 mi WNW 9.2 mph - N/A   Clear
11:42 AM 33.8 °F 25.3 °F 26.6 °F 75% 30.12 in 10.0 mi WNW 11.5 mph - N/A   Clear
12:02 PM 33.8 °F 26.4 °F 26.6 °F 75% 30.12 in 10.0 mi WNW 9.2 mph - N/A   Clear
12:22 PM 33.8 °F 24.8 °F 24.8 °F 70% 30.11 in 10.0 mi WNW 12.7 mph - N/A   Clear
12:43 PM 33.8 °F 25.3 °F 24.8 °F 70% 30.10 in 10.0 mi WNW 11.5 mph - N/A   Clear
1:02 PM 35.6 °F 27.1 °F 24.8 °F 65% 30.10 in 10.0 mi WNW 12.7 mph - N/A   Clear
1:22 PM 35.6 °F 26.6 °F 24.8 °F 65% 30.09 in 10.0 mi WNW 13.8 mph 17.3 mph N/A   Clear
1:42 PM 35.6 °F 26.6 °F 24.8 °F 65% 30.10 in 10.0 mi WNW 13.8 mph - N/A   Clear
2:02 PM 35.6 °F 27.5 °F 24.8 °F 65% 30.09 in 10.0 mi WNW 11.5 mph - N/A   Clear
2:22 PM 37.4 °F 29.8 °F 24.8 °F 60% 30.09 in 10.0 mi WNW 11.5 mph 16.1 mph N/A   Clear
2:42 PM 37.4 °F 30.3 °F 23.0 °F 56% 30.09 in 10.0 mi WNW 10.4 mph - N/A   Mostly Cloudy
3:02 PM 37.4 °F 29.8 °F 23.0 °F 56% 30.08 in 10.0 mi WNW 11.5 mph 17.3 mph N/A   Mostly Cloudy
3:22 PM 37.4 °F 29.8 °F 21.2 °F 52% 30.09 in 10.0 mi WNW 11.5 mph - N/A   Mostly Cloudy
3:42 PM 37.4 °F 29.3 °F 21.2 °F 52% 30.07 in 10.0 mi NW 12.7 mph 19.6 mph N/A   Scattered Clouds
4:02 PM 37.4 °F 28.9 °F 23.0 °F 56% 30.07 in 10.0 mi WNW 13.8 mph - N/A   Clear
4:22 PM 37.4 °F 28.9 °F 21.2 °F 52% 30.07 in 10.0 mi NW 13.8 mph - N/A   Clear
4:42 PM 37.4 °F 30.8 °F 21.2 °F 52% 30.07 in 10.0 mi WNW 9.2 mph - N/A   Clear
5:02 PM 37.4 °F 28.9 °F 21.2 °F 52% 30.07 in 10.0 mi WNW 13.8 mph - N/A   Scattered Clouds
5:22 PM 37.4 °F 30.3 °F 21.2 °F 52% 30.07 in 10.0 mi NW 10.4 mph - N/A   Clear
5:42 PM 37.4 °F 30.8 °F 23.0 °F 56% 30.06 in 10.0 mi NW 9.2 mph - N/A   Clear
6:02 PM 37.4 °F 30.3 °F 21.2 °F 52% 30.06 in 10.0 mi WNW 10.4 mph - N/A   Clear
6:22 PM 37.4 °F 29.8 °F 21.2 °F 52% 30.05 in 10.0 mi WNW 11.5 mph - N/A   Clear
6:42 PM 35.6 °F 27.5 °F 21.2 °F 56% 30.06 in 10.0 mi WNW 11.5 mph - N/A   Clear
7:02 PM 35.6 °F 28.6 °F 21.2 °F 56% 30.06 in 10.0 mi WNW 9.2 mph - N/A   Clear
7:22 PM 35.6 °F 28.6 °F 21.2 °F 56% 30.06 in 10.0 mi WNW 9.2 mph - N/A   Clear
7:42 PM 33.8 °F 26.4 °F 19.4 °F 56% 30.06 in 10.0 mi WNW 9.2 mph - N/A   Clear
8:02 PM 32.0 °F 25.6 °F 21.2 °F 64% 30.07 in 10.0 mi West 6.9 mph - N/A   Clear
8:22 PM 32.0 °F 25.6 °F 19.4 °F 60% 30.07 in 10.0 mi West 6.9 mph - N/A   Clear
8:42 PM 30.2 °F 23.4 °F 21.2 °F 69% 30.08 in 10.0 mi West 6.9 mph - N/A   Clear
9:02 PM 30.2 °F 22.6 °F 21.2 °F 69% 30.08 in 10.0 mi West 8.1 mph - N/A   Clear
9:22 PM 30.2 °F 21.9 °F 21.2 °F 69% 30.08 in 10.0 mi West 9.2 mph - N/A   Clear
9:43 PM 30.2 °F 21.9 °F 21.2 °F 69% 30.09 in 10.0 mi WNW 9.2 mph - N/A   Clear
10:02 PM 30.2 °F 21.9 °F 21.2 °F 69% 30.09 in 10.0 mi WNW 9.2 mph - N/A   Clear
10:22 PM 30.2 °F 21.9 °F 21.2 °F 69% 30.08 in 10.0 mi WNW 9.2 mph - N/A   Clear
10:42 PM 28.4 °F 20.4 °F 21.2 °F 74% 30.08 in 10.0 mi WNW 8.1 mph - N/A   Clear
11:02 PM 28.4 °F 20.4 °F 21.2 °F 74% 30.08 in 10.0 mi WNW 8.1 mph - N/A   Clear
11:22 PM 28.4 °F 20.4 °F 21.2 °F 74% 30.08 in 10.0 mi West 8.1 mph - N/A   Clear
11:42 PM 28.4 °F 19.7 °F 21.2 °F 74% 30.07 in 10.0 mi West 9.2 mph - N/A   Clear